MKJSMWCR

Guest
Details From MKJS - Sangster Intl
To MWCR - Owen Roberts Intl
Flight Number -
Tags decoded
Created
Modified
Stats Distance 201 nm / 373 km
Max Altitude 0 ft / 0 m
Waypoints 6
Social Downloads 1
Likes 0
Share VATSIM

Download

Looking for another format? Having issues loading an existing format? Contact us
Advertisement - Login to hide

Notes

Requested: MKJS PETSI G633 NALRO MWCR

Route

MKJS PETSI G633 NALRO MWCR

ID Type Via Altitude Latitude Longitude Leg Dist Tot Dist Heading (true) Name
O MKJS APT - 0 ft / 0 m 18.50355˚ -77.91370˚ - 0 nm - Sangster Intl
PETSI FIX - 0 ft / 0 m 18.66028˚ -78.59583˚ 39 nm 39 nm 284° / 284° -
FROST FIX G633 (AWY-LO) 0 ft / 0 m 18.76000˚ -79.02000˚ 24 nm 64 nm 284° / 284° -
OTEKO FIX G633 (AWY-LO) 0 ft / 0 m 18.87028˚ -79.50000˚ 28 nm 92 nm 284° / 284° -
NALRO FIX G633 (AWY-LO) 0 ft / 0 m 19.03083˚ -80.20614˚ 41 nm 134 nm 284° / 283° -
O MWCR APT - 0 ft / 0 m 19.29278˚ -81.35776˚ 67 nm 201 nm 284° / 283° Owen Roberts Intl

Altitude Profile

Advertisement - Login to hide

Weather


0- 5 10 15 20 25 30 35+ Temperature / ° C

Clouds and Precipitation
Forecast for 2018-05-23 12:00 UTC. Updated 2 hours ago

Ground ~20,000 ft ~40,000 ft Winds

MKJS

Details ICAO MKJS (MBJ)
Name Sangster Intl
Region Jamaica
Timezone America/Jamaica (UTC-5.0)
Stats Elevation 6 ft / 2 m (AMSL)
Location 18.503549° -77.913698°
Runways 1
Magnetic Variation 7.006° W

METAR

MKJS 231300Z 10005KT 9999 FEW022 28/22 Q1015

Decode

TAF

TAF MKJS 231115Z 2312/2412 13005KT 9999 FEW022 SCT032 BECMG 2314/2316 07015KT SCT020 FEW022CB TEMPO 2318/2324 7000 TSRA BKN018 SCT020CB BECMG 2400/2402 13005KT

Decode

Departure Runways

ID Width Length Bearing (true) Bearing (mag) Surface Threshold Offset Overrun Length
07 161 ft / 49 m 8,495 ft / 2,589 m 65.37° 72.38° Asphalt 220 ft / 67 m 312 ft / 95 m
25 161 ft / 49 m 8,495 ft / 2,589 m 245.37° 252.38° Asphalt 577 ft / 176 m 200 ft / 61 m

MWCR

Details ICAO MWCR (GCM)
Name Owen Roberts Intl
Region Cayman Islands
Timezone America/Cayman (UTC-5.0)
Stats Elevation 7 ft / 2 m (AMSL)
Location 19.292776° -81.357760°
Runways 1
Magnetic Variation 5.043° W

METAR

MWCR 231300Z 13008KT 9999 FEW018 BKN035 27/24 Q1014

Decode

TAF

TAF MWCR 231100Z 2312/2412 14010G20KT 9000 RA VCSH SCT012TCU OVC070

Decode

Destination Runways

ID Width Length Bearing (true) Bearing (mag) Surface Threshold Offset Overrun Length
08 148 ft / 45 m 7,016 ft / 2,139 m 75.84° 80.88° Asphalt 0 ft / 0 m 0 ft / 0 m
26 148 ft / 45 m 7,016 ft / 2,139 m 255.85° 260.89° Asphalt 400 ft / 122 m 0 ft / 0 m

Popular Alternatives